Weather History for Riverside March, CA

Change the Weather History Date:

Tuesday, February 4, 2014

  Actual Average Record
Temperature  
Mean Temperature 46 °F -  
Max Temperature 57 °F 62 °F 84 °F (2001)
Min Temperature 36 °F 39 °F 28 °F (2011)
Degree Days  
Heating Degree Days 18    
Moisture  
Dew Point 39 °F    
Average Humidity 73    
Maximum Humidity 93    
Minimum Humidity 45    
Precipitation  
Precipitation 0.00 in - - ()
Sea Level Pressure  
Sea Level Pressure 30.03 in    
Wind  
Wind Speed 3 mph (SE)    
Max Wind Speed 9 mph    
Max Gust Speed -    
Visibility 10 miles    
Events      
Averages and records for this station are not official NWS values.
T = Trace of Precipitation, MM = Missing Value Source: NWS Daily Summary

Daily Weather History Graph

Daily Weather History Graph

Search for Another Location

Airport:

Trip Planner

Search our weather history database for the weather conditions in past years. The results will help you decide how hot, cold, wet, or windy it might be!

Date:

Astronomy

Feb. 04, 2014 Rise Set
Actual Time 6:43 AM PST 5:22 PM PST
Civil Twilight 6:17 AM PST 5:48 PM PST
Nautical Twilight 5:47 AM PST 6:18 PM PST
Astronomical Twilight 5:18 AM PST 6:47 PM PST
Moon 9:41 AM PST (2/4) 11:02 PM PST (2/4)
Length of Visible Light 11h 31m
Length of Day
10h 39m
Waxing Crescent, 30% of the Moon is Illuminated
Feb 4
Waxing Crescent
Feb 6
First Quarter
Feb 14
Full
Feb 22
Last Quarter
Mar 1
New

Hourly Weather History & Observations

Time (PST) Temp. Windchill Dew Point Humidity Pressure Visibility Wind Dir Wind Speed Gust Speed Precip Events Conditions
12:58 AM 43.2 °F - 39.7 °F 88% 29.99 in 10.0 mi ESE 2.3 mph - N/A   Mostly Cloudy
1:58 AM 41.5 °F 37.8 °F 39.2 °F 91% 29.99 in 10.0 mi South 5.8 mph - N/A   Scattered Clouds
2:58 AM 36.9 °F - 34.5 °F 91% 29.99 in 10.0 mi Calm Calm - N/A   Scattered Clouds
3:58 AM 41.0 °F - 38.3 °F 90% 30.00 in 10.0 mi Calm Calm - N/A   Mostly Cloudy
4:58 AM 40.5 °F - 37.4 °F 89% 30.01 in 10.0 mi Calm Calm - N/A   Overcast
5:17 AM 41.0 °F - 37.4 °F 87% 30.01 in 10.0 mi Calm Calm - N/A   Mostly Cloudy
5:58 AM 39.9 °F - 37.9 °F 93% 30.02 in 10.0 mi South 1.2 mph - N/A   Mostly Cloudy
6:58 AM 40.6 °F - 38.5 °F 92% 30.03 in 10.0 mi East 2.3 mph - N/A   Mostly Cloudy
7:16 AM 39.2 °F 37.0 °F 37.4 °F 93% 30.03 in 10.0 mi SE 3.5 mph - N/A   Partly Cloudy
7:58 AM 43.3 °F 40.7 °F 40.8 °F 91% 30.05 in 10.0 mi SE 4.6 mph - N/A   Mostly Cloudy
8:58 AM 48.2 °F - 42.8 °F 82% 30.06 in 10.0 mi SE 5.8 mph - N/A   Mostly Cloudy
9:58 AM 51.3 °F - 41.9 °F 70% 30.08 in 10.0 mi SE 5.8 mph - N/A   Clear
10:58 AM 54.5 °F - 38.1 °F 54% 30.06 in 10.0 mi Variable 4.6 mph - N/A   Scattered Clouds
11:58 AM 54.5 °F - 36.9 °F 51% 30.04 in 10.0 mi Variable 3.5 mph - N/A   Overcast
12:58 PM 55.4 °F - 36.9 °F 50% 30.01 in 10.0 mi North 3.5 mph - N/A   Scattered Clouds
1:58 PM 56.3 °F - 36.1 °F 47% 30.00 in 10.0 mi Variable 2.3 mph - N/A   Overcast
2:58 PM 57.0 °F - 36.1 °F 46% 30.00 in 10.0 mi North 5.8 mph - N/A   Mostly Cloudy
3:58 PM 56.7 °F - 35.6 °F 45% 29.98 in 10.0 mi Calm Calm - N/A   Clear
4:58 PM 56.5 °F - 35.6 °F 46% 29.98 in 10.0 mi NNE 1.2 mph - N/A   Scattered Clouds
5:58 PM 54.3 °F - 39.7 °F 58% 30.00 in 10.0 mi South 9.2 mph - N/A   Overcast
6:58 PM 51.4 °F - 40.6 °F 67% 30.03 in 10.0 mi South 3.5 mph - N/A   Scattered Clouds
7:58 PM 50.2 °F - 40.5 °F 69% 30.04 in 10.0 mi SSE 6.9 mph - N/A   Mostly Cloudy
8:58 PM 50.4 °F - 39.9 °F 67% 30.05 in 10.0 mi SE 6.9 mph - N/A   Overcast
9:58 PM 48.9 °F - 40.8 °F 74% 30.07 in 10.0 mi SE 6.9 mph - N/A   Mostly Cloudy
10:58 PM 48.4 °F - 41.2 °F 76% 30.08 in 10.0 mi SSE 5.8 mph - N/A   Mostly Cloudy
11:58 PM 47.7 °F - 41.2 °F 78% 30.08 in 10.0 mi SE 4.6 mph - N/A   Overcast